MACSAT 2 (M 2) 1 20608U 90043B 10210.71789819 +.00000122 +00000-0 +15748-4 0 00788 2 20608 089.7313 068.6758 0091736 266.2685 092.8049 14.72067060083309 TUBSAT A 1 21577U 91050D 10210.76904171 -.00000063 +00000-0 -62330-5 0 08298 2 21577 098.5130 158.3597 0005362 271.1417 088.9144 14.38570114998809 S80/T 1 22078U 92052C 10210.40466797 -.00000037 +00000-0 +10000-3 0 08932 2 22078 066.0836 186.8947 0002400 135.1614 224.9593 12.86732046844133 HEALTHSAT 1 1 22827U 93061E 10210.77484992 -.00000063 +00000-0 -80120-5 0 06011 2 22827 098.4779 159.6283 0009904 111.4598 248.7635 14.30212082878485 TUBSAT B 1 22970U 94003B 10210.58864808 +.00000051 +00000-0 +10000-3 0 03902 2 22970 082.5583 222.0994 0015084 313.4384 046.5511 13.16918722793602 CERISE 1 23606U 95033B 10210.74604769 +.00000206 +00000-0 +30906-4 0 01659 2 23606 098.2913 351.4438 0005743 217.6271 142.4562 14.85137363812358 UPM/LBSAT 1 23607U 95033C 10210.77461101 +.00000248 +00000-0 +44880-4 0 04424 2 23607 098.1776 305.7897 0006883 040.9623 319.2118 14.74853872809120 FAISAT 2V 1 24954U 97052B 10210.92517687 +.00000044 +00000-0 +27619-4 0 08958 2 24954 082.9191 010.1225 0041253 064.6033 295.9387 13.79671528646899 MUBLCOM 1 25736U 99026B 10210.78268923 .00000125 00000-0 46944-4 0 853 2 25736 097.7645 112.3167 0004369 240.0750 120.0011 14.44721166589647 RUBIN 3/SL-8 1 27561U 02054C 10210.51893599 -.00000004 +00000-0 +93346-5 0 00452 2 27561 097.9394 029.9139 0048667 055.6248 304.9540 14.53824479406695 APRIZESAT 2 1 28366U 04025A 10210.87769249 +.00000015 +00000-0 +18478-4 0 06863 2 28366 098.1223 188.3356 0109904 022.2419 338.3489 14.35617431318723 SAUDICOMSAT 1 1 28369U 04025D 10210.56672411 +.00000093 +00000-0 +34231-4 0 07240 2 28369 097.9793 233.7447 0033211 232.9410 126.8741 14.50696700322010 SAUDICOMSAT 2 1 28370U 04025E 10210.52968261 +.00000034 +00000-0 +21273-4 0 07314 2 28370 098.0086 216.8611 0057971 278.1965 081.2646 14.45794142320929 APRIZESAT 1 1 28372U 04025G 10210.60241754 +.00000048 +00000-0 +23947-4 0 07119 2 28372 097.9877 224.6521 0046161 255.2376 104.3710 14.48215760321461 NANOSAT(1) 1 28493U 04049B 10210.87933707 +.00000059 +00000-0 +18347-4 0 06933 2 28493 098.3166 183.9954 0005743 051.8806 308.2920 14.70428898301073 SAUDICOMSAT 7 1 31119U 07012C 10210.67616014 +.00000387 +00000-0 +88724-4 0 09991 2 31119 097.9399 261.9235 0063337 060.4822 300.2654 14.59520428174939 SAUDICOMSAT 6 1 31121U 07012E 10210.63517977 +.00000367 +00000-0 +89075-4 0 09985 2 31121 097.9355 255.8573 0080345 078.1298 282.8886 14.56390140174566 SAUDICOMSAT 5 1 31124U 07012H 10210.68165392 +.00000401 +00000-0 +89121-4 0 00053 2 31124 097.9460 265.2328 0054681 052.3011 308.3113 14.61108818175125 SAUDICOMSAT 3 1 31125U 07012J 10210.71441120 +.00000411 +00000-0 +88749-4 0 00117 2 31125 097.9486 268.3605 0046262 044.0178 316.4678 14.62643677175319 SAUDICOMSAT 4 1 31127U 07012L 10210.86396234 +.00000382 +00000-0 +89803-4 0 00041 2 31127 097.9389 259.2807 0071547 068.5286 292.3517 14.58042263174784 OMID (Decayed 2009-04-25) 1 33506U 09004A 09114.86154729 .06921312 12321-4 12316-3 0 2702 2 33506 055.4370 280.8401 0011504 012.0650 349.7794 16.46787765 12981 APRIZESAT 4 1 35684U 09041D 10210.73762857 -.00000120 00000-0 -91472-5 0 3244 2 35684 098.0972 111.5559 0048914 267.4972 092.0626 14.76091069 53841 APRIZESAT 3 1 35686U 09041F 10210.69576083 +.00000112 +00000-0 +20559-4 0 03195 2 35686 098.0981 115.2831 0078428 260.8327 098.4036 14.82590023054073